McAlester, OK

4:09 AM CDT on August 26, 2016 (GMT -0500)
McAlester Regional

Weather History for KMLC - September, 2013

Change the Weather History Date:

Friday, September 6, 2013

  Actual Average Record
Temperature  
Mean Temperature 80 °F -  
Max Temperature 97 °F 89 °F 101 °F (1990)
Min Temperature 64 °F 66 °F 48 °F (1974)
Cooling Degree Days 15    
Growing Degree Days 30 (Base 50)    
Moisture  
Dew Point 60 °F    
Average Humidity 52    
Maximum Humidity 87    
Minimum Humidity 27    
Precipitation  
Precipitation 0.00 in - - ()
Sea Level Pressure  
Sea Level Pressure 30.04 in    
Wind  
Wind Speed 3 mph (East)    
Max Wind Speed 7 mph    
Max Gust Speed -    
Visibility 10 miles    
Events      
Averages and records for this station are not official NWS values.
T = Trace of Precipitation, MM = Missing Value Source: NWS Daily Summary

Daily Weather History Graph

Daily Weather History Graph

Search for Another Location

Airport or City:

Trip Planner

Search our weather history database for the weather conditions in past years. The results will help you decide how hot, cold, wet, or windy it might be!

Date:

Astronomy

Sep. 06, 2013 Rise Set
Actual Time 6:59 AM CDT 7:42 PM CDT
Civil Twilight 6:34 AM CDT 8:07 PM CDT
Nautical Twilight 6:03 AM CDT 8:38 PM CDT
Astronomical Twilight 5:32 AM CDT 9:08 PM CDT
Moon 8:08 AM CDT (9/6) 8:13 PM CDT (9/6)
Length of Visible Light 13h 33m
Length of Day
12h 42m
New Moon, 2% of the Moon is Illuminated
Sep 6
New Moon
Sep 12
First Quarter
Sep 19
Full
Sep 26
Last Quarter
Oct 4
New

Hourly Weather History & Observations

Time (CDT) Temp. Heat Index Dew Point Humidity Pressure Visibility Wind Dir Wind Speed Gust Speed Precip Events Conditions
12:53 AM 73.9 °F - 61.0 °F 64% 30.07 in 10.0 mi ESE 4.6 mph - N/A   Scattered Clouds
1:53 AM 73.9 °F - 60.1 °F 62% 30.07 in 10.0 mi ESE 4.6 mph - N/A   Clear
2:53 AM 73.0 °F - 60.1 °F 64% 30.06 in 10.0 mi East 3.5 mph - N/A   Clear
3:53 AM 71.1 °F - 59.0 °F 66% 30.06 in 10.0 mi Calm Calm - N/A   Mostly Cloudy
4:53 AM 68.0 °F - 60.1 °F 76% 30.06 in 10.0 mi Calm Calm - N/A   Clear
5:53 AM 66.0 °F - 60.1 °F 81% 30.07 in 10.0 mi Calm Calm - N/A   Mostly Cloudy
6:53 AM 64.0 °F - 60.1 °F 87% 30.09 in 10.0 mi Calm Calm - N/A   Clear
7:53 AM 68.0 °F - 61.0 °F 78% 30.10 in 10.0 mi Calm Calm - N/A   Mostly Cloudy
8:53 AM 75.9 °F - 61.0 °F 60% 30.10 in 10.0 mi East 4.6 mph - N/A   Scattered Clouds
9:53 AM 79.0 °F - 63.0 °F 58% 30.10 in 10.0 mi Calm Calm - N/A   Scattered Clouds
10:53 AM 84.9 °F 85.9 °F 63.0 °F 48% 30.10 in 10.0 mi Variable 4.6 mph - N/A   Clear
11:53 AM 90.0 °F 90.3 °F 62.1 °F 39% 30.09 in 10.0 mi Variable 5.8 mph - N/A   Clear
12:53 PM 91.9 °F 91.2 °F 59.0 °F 33% 30.07 in 10.0 mi SW 6.9 mph - N/A   Clear
1:53 PM 95.0 °F 94.4 °F 59.0 °F 30% 30.04 in 10.0 mi Calm Calm - N/A   Scattered Clouds
2:53 PM 93.0 °F 92.0 °F 57.9 °F 31% 30.02 in 10.0 mi Calm Calm - N/A   Mostly Cloudy
3:53 PM 96.1 °F 94.8 °F 57.0 °F 27% 29.99 in 10.0 mi Variable 4.6 mph - N/A   Scattered Clouds
4:53 PM 93.9 °F 92.6 °F 57.0 °F 29% 29.97 in 10.0 mi East 3.5 mph - N/A   Partly Cloudy
5:53 PM 95.0 °F 94.0 °F 57.9 °F 29% 29.97 in 10.0 mi NE 3.5 mph - N/A   Clear
6:53 PM 91.0 °F 90.9 °F 61.0 °F 36% 29.96 in 10.0 mi NE 5.8 mph - N/A   Clear
7:53 PM 86.0 °F 86.1 °F 61.0 °F 43% 29.97 in 10.0 mi East 4.6 mph - N/A   Clear
8:53 PM 82.9 °F 83.2 °F 60.1 °F 46% 29.98 in 10.0 mi East 4.6 mph - N/A   Clear
9:53 PM 80.1 °F 80.9 °F 60.1 °F 50% 29.99 in 10.0 mi East 4.6 mph - N/A   Clear
10:53 PM 79.0 °F - 61.0 °F 54% 29.99 in 10.0 mi ESE 4.6 mph - N/A   Clear
11:53 PM 75.9 °F - 61.0 °F 60% 29.98 in 10.0 mi ESE 3.5 mph - N/A   Clear